• în România
  • Lista ţărilor
  • Pe 7 zile
  • Temperatura apei
  • Hartă satelitară
  • Meteo pe hartă
  • Widget-uri
  • user-avatar
    Intrare

    Meteo pe oră la Yevlakh

    Astăzi, 23 Mai, Marţi

    Timp Temperatura Precipitaţii Vânt Presiune Umiditate
    00:00 +17°C° 0,5 mm 2 m/s 756 mmHg 81%
    01:00 +18°C° 0,2 mm 1 m/s 756 mmHg 82%
    02:00 +16°C° 0,2 mm 1 m/s 757 mmHg 83%
    03:00 +16°C° 0 mm 1 m/s 756 mmHg 85%
    04:00 +18°C° 0,1 mm 1 m/s 756 mmHg 82%
    05:00 +19°C° 0,1 mm 1 m/s 756 mmHg 80%
    06:00 +20°C° 0,1 mm 1 m/s 756 mmHg 77%
    07:00 +22°C° 0 mm 1 m/s 756 mmHg 69%
    08:00 +24°C° 0 mm 1 m/s 756 mmHg 61%
    09:00 +25°C° 0 mm 1 m/s 755 mmHg 53%
    10:00 +27°C° 0 mm 1 m/s 755 mmHg 47%
    11:00 +28°C° 0 mm 2 m/s 755 mmHg 42%
    12:00 +30°C° 0 mm 2 m/s 755 mmHg 37%
    13:00 +30°C° 0,1 mm 4 m/s 755 mmHg 36%
    14:00 +30°C° 0,1 mm 5 m/s 755 mmHg 35%
    15:00 +30°C° 0,1 mm 7 m/s 755 mmHg 35%
    16:00 +29°C° 0,1 mm 5 m/s 755 mmHg 38%
    17:00 +28°C° 0,1 mm 4 m/s 755 mmHg 42%
    18:00 +27°C° 0,1 mm 2 m/s 755 mmHg 45%
    19:00 +25°C° 0,4 mm 2 m/s 756 mmHg 49%
    20:00 +24°C° 0,4 mm 2 m/s 756 mmHg 52%
    21:00 +21°C° 0,4 mm 2 m/s 757 mmHg 56%
    22:00 +22°C° 0 mm 1 m/s 757 mmHg 59%
    23:00 +21°C° 0 mm 1 m/s 757 mmHg 61%

    Mâine, 24 Mai, Miercuri

    Timp Temperatura Precipitaţii Vânt Presiune Umiditate
    00:00 +20°C° 0 mm 1 m/s 757 mmHg 64%
    01:00 +20°C° 0 mm 1 m/s 757 mmHg 64%
    02:00 +20°C° 0 mm 1 m/s 757 mmHg 65%
    03:00 +19°C° 0 mm 1 m/s 757 mmHg 65%
    04:00 +20°C° 0 mm 1 m/s 757 mmHg 64%
    05:00 +20°C° 0 mm 2 m/s 757 mmHg 63%
    06:00 +20°C° 0 mm 2 m/s 758 mmHg 61%
    07:00 +21°C° 0 mm 2 m/s 757 mmHg 57%
    08:00 +22°C° 0 mm 3 m/s 757 mmHg 52%
    09:00 +24°C° 0 mm 3 m/s 757 mmHg 48%
    10:00 +25°C° 0,1 mm 3 m/s 757 mmHg 46%
    11:00 +26°C° 0,1 mm 3 m/s 757 mmHg 44%
    12:00 +26°C° 0,1 mm 2 m/s 757 mmHg 42%
    13:00 +27°C° 0,2 mm 3 m/s 756 mmHg 42%
    14:00 +27°C° 0,2 mm 3 m/s 756 mmHg 42%
    15:00 +28°C° 0,2 mm 4 m/s 756 mmHg 42%
    16:00 +27°C° 0,1 mm 3 m/s 756 mmHg 45%
    17:00 +26°C° 0,1 mm 3 m/s 757 mmHg 47%
    18:00 +26°C° 0,1 mm 3 m/s 757 mmHg 50%
    19:00 +24°C° 0,4 mm 3 m/s 757 mmHg 56%
    20:00 +21°C° 0,4 mm 3 m/s 758 mmHg 62%
    21:00 +19°C° 0,4 mm 3 m/s 759 mmHg 68%
    22:00 +19°C° 0,6 mm 3 m/s 759 mmHg 69%
    23:00 +18°C° 0,6 mm 2 m/s 759 mmHg 69%

    Poimâine, 25 Mai, Joi

    Timp Temperatura Precipitaţii Vânt Presiune Umiditate
    00:00 +18°C° 0,6 mm 2 m/s 759 mmHg 70%
    01:00 +17°C° 0,5 mm 2 m/s 759 mmHg 70%
    02:00 +17°C° 0,5 mm 2 m/s 759 mmHg 70%
    03:00 +16°C° 0,5 mm 2 m/s 759 mmHg 71%
    04:00 +17°C° 0,2 mm 2 m/s 759 mmHg 68%
    05:00 +18°C° 0,2 mm 2 m/s 759 mmHg 65%
    06:00 +19°C° 0,2 mm 2 m/s 760 mmHg 62%
    07:00 +20°C° 0 mm 3 m/s 759 mmHg 54%
    08:00 +22°C° 0 mm 3 m/s 759 mmHg 46%
    09:00 +25°C° 0 mm 3 m/s 759 mmHg 38%
    10:00 +26°C° 0 mm 3 m/s 759 mmHg 35%
    11:00 +27°C° 0 mm 3 m/s 759 mmHg 33%
    12:00 +28°C° 0 mm 3 m/s 758 mmHg 30%
    13:00 +29°C° 0 mm 3 m/s 758 mmHg 29%
    14:00 +29°C° 0 mm 3 m/s 758 mmHg 28%
    15:00 +30°C° 0 mm 3 m/s 758 mmHg 27%
    16:00 +29°C° 0,1 mm 3 m/s 758 mmHg 30%
    17:00 +28°C° 0,1 mm 3 m/s 758 mmHg 33%
    18:00 +27°C° 0,1 mm 2 m/s 758 mmHg 36%
    19:00 +25°C° 0 mm 2 m/s 759 mmHg 38%
    20:00 +23°C° 0 mm 2 m/s 760 mmHg 41%
    21:00 +20°C° 0 mm 2 m/s 760 mmHg 44%
    22:00 +19°C° 0 mm 2 m/s 760 mmHg 49%
    23:00 +18°C° 0 mm 2 m/s 760 mmHg 55%

    26 Mai, Vineri

    Timp Temperatura Precipitaţii Vânt Presiune Umiditate
    00:00 +18°C° 0 mm 1 m/s 760 mmHg 60%
    01:00 +18°C° 0 mm 1 m/s 760 mmHg 64%
    02:00 +16°C° 0 mm 1 m/s 760 mmHg 69%
    03:00 +15°C° 0 mm 0 m/s 760 mmHg 73%
    04:00 +16°C° 0 mm 0 m/s 760 mmHg 69%
    05:00 +17°C° 0 mm 0 m/s 760 mmHg 64%
    06:00 +21°C° 0 mm 1 m/s 760 mmHg 60%
    07:00 +22°C° 0 mm 1 m/s 760 mmHg 52%
    08:00 +24°C° 0 mm 1 m/s 760 mmHg 43%
    09:00 +26°C° 0 mm 2 m/s 760 mmHg 35%
    10:00 +27°C° 0 mm 1 m/s 759 mmHg 33%
    11:00 +28°C° 0 mm 1 m/s 759 mmHg 30%
    12:00 +30°C° 0 mm 1 m/s 758 mmHg 27%
    13:00 +30°C° 0 mm 1 m/s 758 mmHg 27%
    14:00 +30°C° 0 mm 1 m/s 757 mmHg 27%
    15:00 +31°C° 0 mm 1 m/s 757 mmHg 26%
    16:00 +30°C° 0 mm 1 m/s 757 mmHg 31%
    17:00 +29°C° 0 mm 1 m/s 757 mmHg 35%
    18:00 +29°C° 0 mm 1 m/s 757 mmHg 39%
    19:00 +27°C° 0 mm 2 m/s 758 mmHg 41%
    20:00 +25°C° 0 mm 2 m/s 758 mmHg 43%
    21:00 +23°C° 0 mm 2 m/s 759 mmHg 45%
    22:00 +21°C° 0 mm 2 m/s 759 mmHg 49%
    23:00 +20°C° 0 mm 2 m/s 759 mmHg 54%

    27 Mai, Sâmbătă

    Timp Temperatura Precipitaţii Vânt Presiune Umiditate
    00:00 +20°C° 0 mm 2 m/s 759 mmHg 59%
    01:00 +20°C° 0 mm 1 m/s 759 mmHg 64%
    02:00 +19°C° 0 mm 1 m/s 758 mmHg 70%
    03:00 +16°C° 0 mm 0 m/s 758 mmHg 75%
    04:00 +19°C° 0 mm 1 m/s 758 mmHg 71%
    05:00 +21°C° 0 mm 1 m/s 758 mmHg 67%
    06:00 +22°C° 0 mm 1 m/s 758 mmHg 64%
    07:00 +23°C° 0 mm 1 m/s 758 mmHg 57%
    08:00 +25°C° 0 mm 2 m/s 757 mmHg 50%
    09:00 +27°C° 0 mm 2 m/s 757 mmHg 43%
    10:00 +28°C° 0,1 mm 2 m/s 757 mmHg 39%
    11:00 +29°C° 0,1 mm 3 m/s 756 mmHg 35%
    12:00 +30°C° 0,1 mm 3 m/s 755 mmHg 31%
    13:00 +30°C° 0,2 mm 3 m/s 755 mmHg 30%
    14:00 +31°C° 0,2 mm 3 m/s 754 mmHg 30%
    15:00 +31°C° 0,2 mm 2 m/s 754 mmHg 29%
    16:00 +30°C° 0,4 mm 2 m/s 754 mmHg 35%
    17:00 +29°C° 0,4 mm 2 m/s 754 mmHg 42%
    18:00 +28°C° 0,4 mm 1 m/s 753 mmHg 48%
    19:00 +26°C° 0,4 mm 1 m/s 754 mmHg 53%
    20:00 +24°C° 0,4 mm 2 m/s 754 mmHg 58%
    21:00 +21°C° 0,4 mm 2 m/s 755 mmHg 62%
    22:00 +21°C° 0,2 mm 2 m/s 755 mmHg 62%
    23:00 +20°C° 0,2 mm 2 m/s 754 mmHg 62%

    28 Mai, Duminică

    Timp Temperatura Precipitaţii Vânt Presiune Umiditate
    00:00 +20°C° 0,2 mm 2 m/s 754 mmHg 62%
    01:00 +20°C° 0 mm 3 m/s 754 mmHg 63%
    02:00 +20°C° 0 mm 3 m/s 754 mmHg 63%
    03:00 +19°C° 0 mm 3 m/s 754 mmHg 63%
    04:00 +20°C° 0 mm 4 m/s 755 mmHg 61%
    05:00 +20°C° 0 mm 4 m/s 755 mmHg 58%
    06:00 +21°C° 0 mm 4 m/s 755 mmHg 55%
    07:00 +23°C° 0 mm 5 m/s 755 mmHg 48%
    08:00 +27°C° 0 mm 6 m/s 755 mmHg 40%
    09:00 +29°C° 0 mm 6 m/s 754 mmHg 32%
    10:00 +30°C° 0 mm 6 m/s 754 mmHg 30%
    11:00 +32°C° 0 mm 7 m/s 754 mmHg 28%
    12:00 +34°C° 0 mm 7 m/s 753 mmHg 26%
    13:00 +34°C° 0 mm 7 m/s 753 mmHg 26%
    14:00 +34°C° 0 mm 6 m/s 753 mmHg 25%
    15:00 +35°C° 0 mm 6 m/s 753 mmHg 24%
    16:00 +33°C° 0 mm 5 m/s 753 mmHg 27%
    17:00 +32°C° 0 mm 5 m/s 754 mmHg 29%
    18:00 +30°C° 0 mm 4 m/s 754 mmHg 32%
    19:00 +28°C° 0 mm 4 m/s 755 mmHg 34%
    20:00 +26°C° 0 mm 4 m/s 755 mmHg 35%
    21:00 +23°C° 0 mm 4 m/s 756 mmHg 37%
    22:00 +24°C° 0 mm 3 m/s 756 mmHg 42%
    23:00 +22°C° 0 mm 3 m/s 756 mmHg 47%
    Arată mai mult